owner,sensor,date,latitude,longitude,vertical_datum,sea_water_temperature,qcFlag
Shell,ioos:station:wmo:42902:1,2020-01-06T19:33:00Z,28.6246,-87.9964,11.8,21.9,11111222
Shell,ioos:station:wmo:42902:1,2020-01-06T19:43:00Z,28.6246,-87.9964,11.7,22.0,11111222
Shell,ioos:station:wmo:42902:1,2020-01-06T19:53:00Z,28.6246,-87.9964,11.6,21.9,11111222
Shell,ioos:station:wmo:42902:1,2020-01-06T20:03:00Z,28.6246,-87.9964,11.6,21.9,11111222
Shell,ioos:station:wmo:42902:1,2020-01-06T20:13:00Z,28.6246,-87.9964,11.7,21.9,11111222
Shell,ioos:station:wmo:42902:1,2020-01-06T20:24:00Z,28.6246,-87.9964,11.6,21.9,11111222
Shell,ioos:station:wmo:42902:1,2020-01-06T20:34:00Z,28.6246,-87.9964,11.5,21.9,11111222
Shell,ioos:station:wmo:42902:1,2020-01-06T20:44:00Z,28.6246,-87.9964,11.6,21.9,11111222
Shell,ioos:station:wmo:42902:1,2020-01-06T20:54:00Z,28.6246,-87.9964,11.6,21.9,11111222
Shell,ioos:station:wmo:42902:1,2020-01-06T21:04:00Z,28.6246,-87.9964,11.6,22.0,11111222
Shell,ioos:station:wmo:42902:1,2020-01-06T21:14:00Z,28.6246,-87.9964,11.6,21.9,11111222
Shell,ioos:station:wmo:42902:1,2020-01-06T21:24:00Z,28.6246,-87.9964,11.6,21.9,11111222
Shell,ioos:station:wmo:42902:1,2020-01-06T21:34:00Z,28.6246,-87.9964,11.6,22.0,11111222
Shell,ioos:station:wmo:42902:1,2020-01-06T21:44:00Z,28.6246,-87.9964,11.6,21.9,11111222
Shell,ioos:station:wmo:42902:1,2020-01-06T21:54:00Z,28.6246,-87.9964,11.6,22.0,11111222
Shell,ioos:station:wmo:42902:1,2020-01-06T22:04:00Z,28.6246,-87.9964,11.6,21.9,11111222
Shell,ioos:station:wmo:42902:1,2020-01-06T22:14:00Z,28.6246,-87.9964,11.9,21.9,11111222
Shell,ioos:station:wmo:42902:1,2020-01-06T22:24:00Z,28.6246,-87.9964,11.8,21.9,11111222
Shell,ioos:station:wmo:42902:1,2020-01-06T22:34:00Z,28.6246,-87.9964,11.7,21.9,11111222
Shell,ioos:station:wmo:42902:1,2020-01-06T22:44:00Z,28.6246,-87.9964,11.8,21.8,11111222
Shell,ioos:station:wmo:42902:1,2020-01-06T22:54:00Z,28.6246,-87.9964,11.8,21.8,11111222
Shell,ioos:station:wmo:42902:1,2020-01-06T23:04:00Z,28.6246,-87.9964,11.8,21.8,11111222
Shell,ioos:station:wmo:42902:1,2020-01-06T23:14:00Z,28.6246,-87.9964,11.7,21.8,11111222
Shell,ioos:station:wmo:42902:1,2020-01-06T23:24:00Z,28.6246,-87.9964,11.7,21.8,11111222
Shell,ioos:station:wmo:42902:1,2020-01-06T23:34:00Z,28.6246,-87.9964,11.7,21.8,11111222
Shell,ioos:station:wmo:42902:1,2020-01-06T23:44:00Z,28.6246,-87.9964,11.7,21.8,11111222
Shell,ioos:station:wmo:42902:1,2020-01-06T23:54:00Z,28.6246,-87.9964,11.7,21.8,11111222
Shell,ioos:station:wmo:42902:1,2020-01-07T00:04:00Z,28.6246,-87.9964,11.7,21.8,11111222
Shell,ioos:station:wmo:42902:1,2020-01-07T00:14:00Z,28.6246,-87.9964,11.7,21.7,11111222
Shell,ioos:station:wmo:42902:1,2020-01-07T00:24:00Z,28.6246,-87.9964,11.7,21.8,11111222
Shell,ioos:station:wmo:42902:1,2020-01-07T00:34:00Z,28.6246,-87.9964,11.7,21.8,11111222
Shell,ioos:station:wmo:42902:1,2020-01-07T00:44:00Z,28.6246,-87.9964,11.7,21.8,11111222
Shell,ioos:station:wmo:42902:1,2020-01-07T00:54:00Z,28.6246,-87.9964,11.7,21.8,11111222
Shell,ioos:station:wmo:42902:1,2020-01-07T01:04:00Z,28.6246,-87.9964,11.7,21.8,11111222
Shell,ioos:station:wmo:42902:1,2020-01-07T01:14:00Z,28.6246,-87.9964,11.7,21.8,11111222
Shell,ioos:station:wmo:42902:1,2020-01-07T01:24:00Z,28.6246,-87.9964,11.7,21.8,11111222
Shell,ioos:station:wmo:42902:1,2020-01-07T01:34:00Z,28.6246,-87.9964,11.7,21.8,11111222
Shell,ioos:station:wmo:42902:1,2020-01-07T01:44:00Z,28.6246,-87.9964,11.7,21.7,11111222
Shell,ioos:station:wmo:42902:1,2020-01-07T01:54:00Z,28.6246,-87.9964,11.7,21.7,11111222
Shell,ioos:station:wmo:42902:1,2020-01-07T02:04:00Z,28.6246,-87.9964,11.7,21.7,11111222
Shell,ioos:station:wmo:42902:1,2020-01-07T02:14:00Z,28.6246,-87.9964,11.7,21.7,11111222
Shell,ioos:station:wmo:42902:1,2020-01-07T02:24:00Z,28.6246,-87.9964,11.7,21.7,11111222
Shell,ioos:station:wmo:42902:1,2020-01-07T02:34:00Z,28.6246,-87.9964,11.7,21.7,11111222
Shell,ioos:station:wmo:42902:1,2020-01-07T02:44:00Z,28.6246,-87.9964,11.7,21.7,11111222
Shell,ioos:station:wmo:42902:1,2020-01-07T02:54:00Z,28.6246,-87.9964,11.8,21.8,11111222
Shell,ioos:station:wmo:42902:1,2020-01-07T03:04:00Z,28.6246,-87.9964,11.9,21.8,11111222
Shell,ioos:station:wmo:42902:1,2020-01-07T03:14:00Z,28.6246,-87.9964,11.9,21.9,11111222
Shell,ioos:station:wmo:42902:1,2020-01-07T03:24:00Z,28.6246,-87.9964,11.8,21.9,11111222
Shell,ioos:station:wmo:42902:1,2020-01-07T03:35:00Z,28.6246,-87.9964,11.9,21.9,11111222
Shell,ioos:station:wmo:42902:1,2020-01-07T03:45:00Z,28.6246,-87.9964,11.8,21.9,11111222
Shell,ioos:station:wmo:42902:1,2020-01-07T03:55:00Z,28.6246,-87.9964,11.7,21.9,11111222
Shell,ioos:station:wmo:42902:1,2020-01-07T04:05:00Z,28.6246,-87.9964,11.6,21.9,11111222
Shell,ioos:station:wmo:42902:1,2020-01-07T04:15:00Z,28.6246,-87.9964,11.7,21.9,11111222
Shell,ioos:station:wmo:42902:1,2020-01-07T04:25:00Z,28.6246,-87.9964,11.7,21.9,11111222
Shell,ioos:station:wmo:42902:1,2020-01-07T04:35:00Z,28.6246,-87.9964,11.7,21.9,11111222
Shell,ioos:station:wmo:42902:1,2020-01-07T04:45:00Z,28.6246,-87.9964,11.7,21.9,11111222
Shell,ioos:station:wmo:42902:1,2020-01-07T04:55:00Z,28.6246,-87.9964,11.7,21.9,11111222
Shell,ioos:station:wmo:42902:1,2020-01-07T05:05:00Z,28.6246,-87.9964,11.7,21.9,11111222
Shell,ioos:station:wmo:42902:1,2020-01-07T05:15:00Z,28.6246,-87.9964,11.6,21.9,11111222
Shell,ioos:station:wmo:42902:1,2020-01-07T05:25:00Z,28.6246,-87.9964,11.6,21.9,11111222
Shell,ioos:station:wmo:42902:1,2020-01-07T05:35:00Z,28.6246,-87.9964,11.6,21.9,11111222
Shell,ioos:station:wmo:42902:1,2020-01-07T05:45:00Z,28.6246,-87.9964,11.6,21.9,11111222
Shell,ioos:station:wmo:42902:1,2020-01-07T05:55:00Z,28.6246,-87.9964,11.6,21.9,11111222
Shell,ioos:station:wmo:42902:1,2020-01-07T06:05:00Z,28.6246,-87.9964,11.6,21.9,11111222
Shell,ioos:station:wmo:42902:1,2020-01-07T06:15:00Z,28.6246,-87.9964,11.6,21.9,11111222
Shell,ioos:station:wmo:42902:1,2020-01-07T06:25:00Z,28.6246,-87.9964,11.6,21.9,11111222
Shell,ioos:station:wmo:42902:1,2020-01-07T06:35:00Z,28.6246,-87.9964,11.6,21.9,11111222
Shell,ioos:station:wmo:42902:1,2020-01-07T06:45:00Z,28.6246,-87.9964,11.6,21.9,11111222
Shell,ioos:station:wmo:42902:1,2020-01-07T06:55:00Z,28.6246,-87.9964,11.7,21.9,11111222
Shell,ioos:station:wmo:42902:1,2020-01-07T07:05:00Z,28.6246,-87.9964,11.7,21.9,11111222
Shell,ioos:station:wmo:42902:1,2020-01-07T07:15:00Z,28.6246,-87.9964,11.7,21.9,11111222
Shell,ioos:station:wmo:42902:1,2020-01-07T07:25:00Z,28.6246,-87.9964,11.7,21.9,11111222
Shell,ioos:station:wmo:42902:1,2020-01-07T07:35:00Z,28.6246,-87.9964,11.7,21.9,11111222
Shell,ioos:station:wmo:42902:1,2020-01-07T07:45:00Z,28.6246,-87.9964,11.8,21.9,11111222
Shell,ioos:station:wmo:42902:1,2020-01-07T07:55:00Z,28.6246,-87.9964,11.8,21.9,11111222
Shell,ioos:station:wmo:42902:1,2020-01-07T08:05:00Z,28.6246,-87.9964,11.8,21.9,11111222
Shell,ioos:station:wmo:42902:1,2020-01-07T08:15:00Z,28.6246,-87.9964,11.7,21.9,11111222
Shell,ioos:station:wmo:42902:1,2020-01-07T08:25:00Z,28.6246,-87.9964,11.7,21.9,11111222
Shell,ioos:station:wmo:42902:1,2020-01-07T08:35:00Z,28.6246,-87.9964,11.7,21.9,11111222
Shell,ioos:station:wmo:42902:1,2020-01-07T08:45:00Z,28.6246,-87.9964,11.7,21.9,11111222
Shell,ioos:station:wmo:42902:1,2020-01-07T08:55:00Z,28.6246,-87.9964,11.8,21.9,11111222
Shell,ioos:station:wmo:42902:1,2020-01-07T09:05:00Z,28.6246,-87.9964,11.8,21.9,11111222
Shell,ioos:station:wmo:42902:1,2020-01-07T09:15:00Z,28.6246,-87.9964,11.7,21.9,11111222
Shell,ioos:station:wmo:42902:1,2020-01-07T09:25:00Z,28.6246,-87.9964,11.7,21.9,11111222
Shell,ioos:station:wmo:42902:1,2020-01-07T09:35:00Z,28.6246,-87.9964,11.7,22.0,11111222
Shell,ioos:station:wmo:42902:1,2020-01-07T09:45:00Z,28.6246,-87.9964,11.7,22.0,11111222
Shell,ioos:station:wmo:42902:1,2020-01-07T09:55:00Z,28.6246,-87.9964,11.7,22.0,11111222
Shell,ioos:station:wmo:42902:1,2020-01-07T10:05:00Z,28.6246,-87.9964,11.7,22.0,11111222
Shell,ioos:station:wmo:42902:1,2020-01-07T10:15:00Z,28.6246,-87.9964,11.7,22.1,11111222
Shell,ioos:station:wmo:42902:1,2020-01-07T10:25:00Z,28.6246,-87.9964,11.8,22.1,11111222
Shell,ioos:station:wmo:42902:1,2020-01-07T10:35:00Z,28.6246,-87.9964,11.8,22.1,11111222
Shell,ioos:station:wmo:42902:1,2020-01-07T10:45:00Z,28.6246,-87.9964,11.7,22.2,11111222
Shell,ioos:station:wmo:42902:1,2020-01-07T10:56:00Z,28.6246,-87.9964,11.7,22.2,11111222
Shell,ioos:station:wmo:42902:1,2020-01-07T11:06:00Z,28.6246,-87.9964,11.7,22.2,11111222
Shell,ioos:station:wmo:42902:1,2020-01-07T11:16:00Z,28.6246,-87.9964,11.7,22.2,11111222
Shell,ioos:station:wmo:42902:1,2020-01-07T11:26:00Z,28.6246,-87.9964,11.7,22.2,11111222
Shell,ioos:station:wmo:42902:1,2020-01-07T11:36:00Z,28.6246,-87.9964,11.8,22.2,11111222
Shell,ioos:station:wmo:42902:1,2020-01-07T11:46:00Z,28.6246,-87.9964,11.8,22.2,11111222
Shell,ioos:station:wmo:42902:1,2020-01-07T11:56:00Z,28.6246,-87.9964,11.8,22.2,11111222
Shell,ioos:station:wmo:42902:1,2020-01-07T12:06:00Z,28.6246,-87.9964,11.9,22.3,11111222
Shell,ioos:station:wmo:42902:1,2020-01-07T12:16:00Z,28.6246,-87.9964,11.8,22.3,11111222
Shell,ioos:station:wmo:42902:1,2020-01-07T12:26:00Z,28.6246,-87.9964,11.8,22.2,11111222
Shell,ioos:station:wmo:42902:1,2020-01-07T12:36:00Z,28.6246,-87.9964,11.8,22.2,11111222
Shell,ioos:station:wmo:42902:1,2020-01-07T12:46:00Z,28.6246,-87.9964,11.8,22.2,11111222
Shell,ioos:station:wmo:42902:1,2020-01-07T12:56:00Z,28.6246,-87.9964,11.8,22.1,11111222
Shell,ioos:station:wmo:42902:1,2020-01-07T13:06:00Z,28.6246,-87.9964,11.8,22.1,11111222
Shell,ioos:station:wmo:42902:1,2020-01-07T13:16:00Z,28.6246,-87.9964,11.8,22.1,11111222
Shell,ioos:station:wmo:42902:1,2020-01-07T13:26:00Z,28.6246,-87.9964,11.8,22.1,11111222
Shell,ioos:station:wmo:42902:1,2020-01-07T13:36:00Z,28.6246,-87.9964,11.8,22.0,11111222
Shell,ioos:station:wmo:42902:1,2020-01-07T13:46:00Z,28.6246,-87.9964,11.8,22.0,11111222
Shell,ioos:station:wmo:42902:1,2020-01-07T13:56:00Z,28.6246,-87.9964,11.8,22.0,11111222
Shell,ioos:station:wmo:42902:1,2020-01-07T14:06:00Z,28.6246,-87.9964,11.8,21.9,11111222
Shell,ioos:station:wmo:42902:1,2020-01-07T14:16:00Z,28.6246,-87.9964,11.9,21.9,11111222
Shell,ioos:station:wmo:42902:1,2020-01-07T14:26:00Z,28.6246,-87.9964,11.8,21.9,11111222
Shell,ioos:station:wmo:42902:1,2020-01-07T14:36:00Z,28.6246,-87.9964,11.8,21.9,11111222
Shell,ioos:station:wmo:42902:1,2020-01-07T14:46:00Z,28.6246,-87.9964,11.8,21.9,11111222
Shell,ioos:station:wmo:42902:1,2020-01-07T14:56:00Z,28.6246,-87.9964,11.8,21.9,11111222
Shell,ioos:station:wmo:42902:1,2020-01-07T15:06:00Z,28.6246,-87.9964,11.8,21.9,11111222
Shell,ioos:station:wmo:42902:1,2020-01-07T15:16:00Z,28.6246,-87.9964,11.8,21.9,11111222
Shell,ioos:station:wmo:42902:1,2020-01-07T15:26:00Z,28.6246,-87.9964,11.8,21.9,11111222
Shell,ioos:station:wmo:42902:1,2020-01-07T15:36:00Z,28.6246,-87.9964,11.7,21.9,11111222
Shell,ioos:station:wmo:42902:1,2020-01-07T15:46:00Z,28.6246,-87.9964,11.7,21.9,11111222
Shell,ioos:station:wmo:42902:1,2020-01-07T15:56:00Z,28.6246,-87.9964,11.7,21.9,11111222
Shell,ioos:station:wmo:42902:1,2020-01-07T16:06:00Z,28.6246,-87.9964,11.6,21.8,11111222
Shell,ioos:station:wmo:42902:1,2020-01-07T16:16:00Z,28.6246,-87.9964,11.6,21.8,11111222
Shell,ioos:station:wmo:42902:1,2020-01-07T16:26:00Z,28.6246,-87.9964,11.7,21.8,11111222
Shell,ioos:station:wmo:42902:1,2020-01-07T16:36:00Z,28.6246,-87.9964,11.7,21.8,11111222
Shell,ioos:station:wmo:42902:1,2020-01-07T16:46:00Z,28.6246,-87.9964,11.7,21.8,11111222
Shell,ioos:station:wmo:42902:1,2020-01-07T16:56:00Z,28.6246,-87.9964,11.7,21.8,11111222
Shell,ioos:station:wmo:42902:1,2020-01-07T17:06:00Z,28.6246,-87.9964,11.7,21.8,11111222
Shell,ioos:station:wmo:42902:1,2020-01-07T17:16:00Z,28.6246,-87.9964,11.6,21.8,11111222
Shell,ioos:station:wmo:42902:1,2020-01-07T17:26:00Z,28.6246,-87.9964,11.6,21.8,11111222
Shell,ioos:station:wmo:42902:1,2020-01-07T17:36:00Z,28.6246,-87.9964,11.6,21.8,11111222
Shell,ioos:station:wmo:42902:1,2020-01-07T17:46:00Z,28.6246,-87.9964,11.6,21.8,11111222
Shell,ioos:station:wmo:42902:1,2020-01-07T17:56:00Z,28.6246,-87.9964,11.6,21.8,11111222
Shell,ioos:station:wmo:42902:1,2020-01-07T18:06:00Z,28.6246,-87.9964,11.6,21.8,11111222
Shell,ioos:station:wmo:42902:1,2020-01-07T18:17:00Z,28.6246,-87.9964,11.7,21.8,11111222
Shell,ioos:station:wmo:42902:1,2020-01-07T18:27:00Z,28.6246,-87.9964,11.7,21.9,11111222
Shell,ioos:station:wmo:42902:1,2020-01-07T18:37:00Z,28.6246,-87.9964,11.6,21.9,11111222
Shell,ioos:station:wmo:42902:1,2020-01-07T18:47:00Z,28.6246,-87.9964,11.6,21.9,11111222
Shell,ioos:station:wmo:42902:1,2020-01-07T18:57:00Z,28.6246,-87.9964,11.6,21.9,11111222
Shell,ioos:station:wmo:42902:1,2020-01-07T19:07:00Z,28.6246,-87.9964,11.7,21.9,11111222
Shell,ioos:station:wmo:42902:1,2020-01-07T19:17:00Z,28.6246,-87.9964,11.7,21.9,11111222
Shell,ioos:station:wmo:42902:1,2020-01-07T19:27:00Z,28.6246,-87.9964,11.7,21.9,11111222
Shell,ioos:station:wmo:42902:1,2020-01-07T19:37:00Z,28.6246,-87.9964,11.6,22.0,11111222
Shell,ioos:station:wmo:42902:1,2020-01-07T19:47:00Z,28.6246,-87.9964,11.6,22.0,11111222
Shell,ioos:station:wmo:42902:1,2020-01-07T19:57:00Z,28.6246,-87.9964,11.6,22.0,11111222
Shell,ioos:station:wmo:42902:1,2020-01-07T20:07:00Z,28.6246,-87.9964,11.7,22.0,11111222
Shell,ioos:station:wmo:42902:1,2020-01-07T20:17:00Z,28.6246,-87.9964,11.7,22.0,11111222
Shell,ioos:station:wmo:42902:1,2020-01-07T20:27:00Z,28.6246,-87.9964,11.7,22.0,11111222
Shell,ioos:station:wmo:42902:1,2020-01-07T20:37:00Z,28.6246,-87.9964,11.7,22.0,11111222
Shell,ioos:station:wmo:42902:1,2020-01-07T20:47:00Z,28.6246,-87.9964,11.7,22.0,11111222
Shell,ioos:station:wmo:42902:1,2020-01-07T20:57:00Z,28.6246,-87.9964,11.7,22.0,11111222
Shell,ioos:station:wmo:42902:1,2020-01-07T21:07:00Z,28.6246,-87.9964,11.7,22.0,11111222
Shell,ioos:station:wmo:42902:1,2020-01-07T21:17:00Z,28.6246,-87.9964,11.7,22.1,11111222
Shell,ioos:station:wmo:42902:1,2020-01-07T21:27:00Z,28.6246,-87.9964,11.7,22.1,11111222
Shell,ioos:station:wmo:42902:1,2020-01-07T21:37:00Z,28.6246,-87.9964,11.8,22.1,11111222
Shell,ioos:station:wmo:42902:1,2020-01-07T21:47:00Z,28.6246,-87.9964,11.7,22.1,11111222
Shell,ioos:station:wmo:42902:1,2020-01-07T21:57:00Z,28.6246,-87.9964,11.7,22.1,11111222
Shell,ioos:station:wmo:42902:1,2020-01-07T22:07:00Z,28.6246,-87.9964,11.6,22.1,11111222
Shell,ioos:station:wmo:42902:1,2020-01-07T22:17:00Z,28.6246,-87.9964,11.6,22.1,11111222
Shell,ioos:station:wmo:42902:1,2020-01-07T22:27:00Z,28.6246,-87.9964,11.6,22.1,11111222
Shell,ioos:station:wmo:42902:1,2020-01-07T22:37:00Z,28.6246,-87.9964,11.7,22.1,11111222
Shell,ioos:station:wmo:42902:1,2020-01-07T22:47:00Z,28.6246,-87.9964,11.8,22.1,11111222
Shell,ioos:station:wmo:42902:1,2020-01-07T22:57:00Z,28.6246,-87.9964,11.8,22.1,11111222
Shell,ioos:station:wmo:42902:1,2020-01-07T23:07:00Z,28.6246,-87.9964,11.8,22.1,11111222
Shell,ioos:station:wmo:42902:1,2020-01-07T23:17:00Z,28.6246,-87.9964,11.8,22.1,11111222
Shell,ioos:station:wmo:42902:1,2020-01-07T23:27:00Z,28.6246,-87.9964,11.7,22.1,11111222
Shell,ioos:station:wmo:42902:1,2020-01-07T23:37:00Z,28.6246,-87.9964,11.7,22.1,11111222
Shell,ioos:station:wmo:42902:1,2020-01-07T23:47:00Z,28.6246,-87.9964,11.7,22.1,11111222
Shell,ioos:station:wmo:42902:1,2020-01-07T23:57:00Z,28.6246,-87.9964,11.7,22.1,11111222
Shell,ioos:station:wmo:42902:1,2020-01-08T00:07:00Z,28.6246,-87.9964,11.7,22.1,11111222
Shell,ioos:station:wmo:42902:1,2020-01-08T00:17:00Z,28.6246,-87.9964,11.7,22.1,11111222
Shell,ioos:station:wmo:42902:1,2020-01-08T00:27:00Z,28.6246,-87.9964,11.7,22.1,11111222
Shell,ioos:station:wmo:42902:1,2020-01-08T00:37:00Z,28.6246,-87.9964,11.7,22.1,11111222
Shell,ioos:station:wmo:42902:1,2020-01-08T00:47:00Z,28.6246,-87.9964,11.7,22.1,11111222
Shell,ioos:station:wmo:42902:1,2020-01-08T00:57:00Z,28.6246,-87.9964,11.7,22.1,11111222
Shell,ioos:station:wmo:42902:1,2020-01-08T01:07:00Z,28.6246,-87.9964,11.7,22.1,11111222
Shell,ioos:station:wmo:42902:1,2020-01-08T01:17:00Z,28.6246,-87.9964,11.7,22.1,11111222
Shell,ioos:station:wmo:42902:1,2020-01-08T01:27:00Z,28.6246,-87.9964,11.7,22.1,11111222
Shell,ioos:station:wmo:42902:1,2020-01-08T01:38:00Z,28.6246,-87.9964,11.7,22.1,11111222
Shell,ioos:station:wmo:42902:1,2020-01-08T01:48:00Z,28.6246,-87.9964,11.7,22.1,11111222
Shell,ioos:station:wmo:42902:1,2020-01-08T01:58:00Z,28.6246,-87.9964,11.7,22.1,11111222
Shell,ioos:station:wmo:42902:1,2020-01-08T02:08:00Z,28.6246,-87.9964,11.7,22.1,11111222
Shell,ioos:station:wmo:42902:1,2020-01-08T02:18:00Z,28.6246,-87.9964,11.7,22.1,11111222
Shell,ioos:station:wmo:42902:1,2020-01-08T02:28:00Z,28.6246,-87.9964,11.7,22.1,11111222
Shell,ioos:station:wmo:42902:1,2020-01-08T02:38:00Z,28.6246,-87.9964,11.7,22.1,11111222
Shell,ioos:station:wmo:42902:1,2020-01-08T02:48:00Z,28.6246,-87.9964,11.7,22.1,11111222
Shell,ioos:station:wmo:42902:1,2020-01-08T02:58:00Z,28.6246,-87.9964,11.7,22.1,11111222
Shell,ioos:station:wmo:42902:1,2020-01-08T03:08:00Z,28.6246,-87.9964,11.7,22.1,11111222
Shell,ioos:station:wmo:42902:1,2020-01-08T03:18:00Z,28.6246,-87.9964,11.7,22.1,11111222
Shell,ioos:station:wmo:42902:1,2020-01-08T03:28:00Z,28.6246,-87.9964,11.7,22.1,11111222
Shell,ioos:station:wmo:42902:1,2020-01-08T03:38:00Z,28.6246,-87.9964,11.7,22.0,11111222
Shell,ioos:station:wmo:42902:1,2020-01-08T03:48:00Z,28.6246,-87.9964,11.7,22.0,11111222
Shell,ioos:station:wmo:42902:1,2020-01-08T03:58:00Z,28.6246,-87.9964,11.7,22.0,11111222
Shell,ioos:station:wmo:42902:1,2020-01-08T04:08:00Z,28.6246,-87.9964,11.7,22.0,11111222
Shell,ioos:station:wmo:42902:1,2020-01-08T04:18:00Z,28.6246,-87.9964,11.7,22.0,11111222
Shell,ioos:station:wmo:42902:1,2020-01-08T04:28:00Z,28.6246,-87.9964,11.6,22.0,11111222
Shell,ioos:station:wmo:42902:1,2020-01-08T04:38:00Z,28.6246,-87.9964,11.7,22.0,11111222
Shell,ioos:station:wmo:42902:1,2020-01-08T04:48:00Z,28.6246,-87.9964,11.7,22.0,11111222
Shell,ioos:station:wmo:42902:1,2020-01-08T04:58:00Z,28.6246,-87.9964,11.7,22.0,11111222
Shell,ioos:station:wmo:42902:1,2020-01-08T05:08:00Z,28.6246,-87.9964,11.6,22.0,11111222
Shell,ioos:station:wmo:42902:1,2020-01-08T05:18:00Z,28.6246,-87.9964,11.6,22.0,11111222
Shell,ioos:station:wmo:42902:1,2020-01-08T05:28:00Z,28.6246,-87.9964,11.7,22.0,11111222
Shell,ioos:station:wmo:42902:1,2020-01-08T05:38:00Z,28.6246,-87.9964,11.8,22.0,11111222
Shell,ioos:station:wmo:42902:1,2020-01-08T05:48:00Z,28.6246,-87.9964,11.8,22.0,11111222
Shell,ioos:station:wmo:42902:1,2020-01-08T05:58:00Z,28.6246,-87.9964,11.8,22.0,11111222
Shell,ioos:station:wmo:42902:1,2020-01-08T06:08:00Z,28.6246,-87.9964,11.9,22.0,11111222
Shell,ioos:station:wmo:42902:1,2020-01-08T06:18:00Z,28.6246,-87.9964,11.8,22.0,11111222
Shell,ioos:station:wmo:42902:1,2020-01-08T06:28:00Z,28.6246,-87.9964,11.8,22.0,11111222
Shell,ioos:station:wmo:42902:1,2020-01-08T06:38:00Z,28.6246,-87.9964,11.8,22.0,11111222
Shell,ioos:station:wmo:42902:1,2020-01-08T06:48:00Z,28.6246,-87.9964,11.8,22.0,11111222
Shell,ioos:station:wmo:42902:1,2020-01-08T06:58:00Z,28.6246,-87.9964,11.8,22.0,11111222
Shell,ioos:station:wmo:42902:1,2020-01-08T07:08:00Z,28.6246,-87.9964,11.8,22.0,11111222
Shell,ioos:station:wmo:42902:1,2020-01-08T07:18:00Z,28.6246,-87.9964,11.8,22.0,11111222
Shell,ioos:station:wmo:42902:1,2020-01-08T07:28:00Z,28.6246,-87.9964,11.8,22.0,11111222
Shell,ioos:station:wmo:42902:1,2020-01-08T07:38:00Z,28.6246,-87.9964,11.8,22.0,11111222
Shell,ioos:station:wmo:42902:1,2020-01-08T07:48:00Z,28.6246,-87.9964,11.8,22.0,11111222
Shell,ioos:station:wmo:42902:1,2020-01-08T07:58:00Z,28.6246,-87.9964,11.8,21.9,11111222
Shell,ioos:station:wmo:42902:1,2020-01-08T08:08:00Z,28.6246,-87.9964,11.8,21.9,11111222
Shell,ioos:station:wmo:42902:1,2020-01-08T08:18:00Z,28.6246,-87.9964,11.8,21.9,11111222
Shell,ioos:station:wmo:42902:1,2020-01-08T08:28:00Z,28.6246,-87.9964,11.7,21.9,11111222
Shell,ioos:station:wmo:42902:1,2020-01-08T08:38:00Z,28.6246,-87.9964,11.7,21.9,11111222
Shell,ioos:station:wmo:42902:1,2020-01-08T08:48:00Z,28.6246,-87.9964,11.8,21.9,11111222
Shell,ioos:station:wmo:42902:1,2020-01-08T08:59:00Z,28.6246,-87.9964,11.8,21.9,11111222
Shell,ioos:station:wmo:42902:1,2020-01-08T09:09:00Z,28.6246,-87.9964,11.8,21.9,11111222
Shell,ioos:station:wmo:42902:1,2020-01-08T09:19:00Z,28.6246,-87.9964,11.8,21.9,11111222
Shell,ioos:station:wmo:42902:1,2020-01-08T09:29:00Z,28.6246,-87.9964,11.8,21.9,11111222
Shell,ioos:station:wmo:42902:1,2020-01-08T09:39:00Z,28.6246,-87.9964,11.8,21.9,11111222
Shell,ioos:station:wmo:42902:1,2020-01-08T09:49:00Z,28.6246,-87.9964,11.8,21.9,11111222
Shell,ioos:station:wmo:42902:1,2020-01-08T09:59:00Z,28.6246,-87.9964,11.8,21.9,11111222
Shell,ioos:station:wmo:42902:1,2020-01-08T10:09:00Z,28.6246,-87.9964,11.8,21.9,11111222
Shell,ioos:station:wmo:42902:1,2020-01-08T10:19:00Z,28.6246,-87.9964,11.8,21.9,11111222
Shell,ioos:station:wmo:42902:1,2020-01-08T10:29:00Z,28.6246,-87.9964,11.8,21.9,11111222
Shell,ioos:station:wmo:42902:1,2020-01-08T10:39:00Z,28.6246,-87.9964,11.8,21.9,11111222
Shell,ioos:station:wmo:42902:1,2020-01-08T10:49:00Z,28.6246,-87.9964,11.8,21.9,11111222
Shell,ioos:station:wmo:42902:1,2020-01-08T10:59:00Z,28.6246,-87.9964,11.8,21.9,11111222
Shell,ioos:station:wmo:42902:1,2020-01-08T11:09:00Z,28.6246,-87.9964,11.8,21.8,11111222
Shell,ioos:station:wmo:42902:1,2020-01-08T11:19:00Z,28.6246,-87.9964,11.8,21.8,11111222
Shell,ioos:station:wmo:42902:1,2020-01-08T11:29:00Z,28.6246,-87.9964,11.3,21.8,11111222
Shell,ioos:station:wmo:42902:1,2020-01-08T11:39:00Z,28.6246,-87.9964,11.2,21.8,11111222
Shell,ioos:station:wmo:42902:1,2020-01-08T11:49:00Z,28.6246,-87.9964,11.2,21.9,11111222
Shell,ioos:station:wmo:42902:1,2020-01-08T11:59:00Z,28.6246,-87.9964,11.2,21.9,11111222
Shell,ioos:station:wmo:42902:1,2020-01-08T12:09:00Z,28.6246,-87.9964,11.2,21.9,11111222
Shell,ioos:station:wmo:42902:1,2020-01-08T12:19:00Z,28.6246,-87.9964,11.2,21.9,11111222
Shell,ioos:station:wmo:42902:1,2020-01-08T12:29:00Z,28.6246,-87.9964,11.2,21.8,11111222
Shell,ioos:station:wmo:42902:1,2020-01-08T12:39:00Z,28.6246,-87.9964,11.2,21.8,11111222
Shell,ioos:station:wmo:42902:1,2020-01-08T12:49:00Z,28.6246,-87.9964,11.2,21.8,11111222
Shell,ioos:station:wmo:42902:1,2020-01-08T12:59:00Z,28.6246,-87.9964,11.2,21.8,11111222
Shell,ioos:station:wmo:42902:1,2020-01-08T13:09:00Z,28.6246,-87.9964,11.2,21.8,11111222
Shell,ioos:station:wmo:42902:1,2020-01-08T13:19:00Z,28.6246,-87.9964,11.2,21.8,11111222
Shell,ioos:station:wmo:42902:1,2020-01-08T13:29:00Z,28.6246,-87.9964,11.2,21.8,11111222
Shell,ioos:station:wmo:42902:1,2020-01-08T13:39:00Z,28.6246,-87.9964,11.2,21.8,11111222
Shell,ioos:station:wmo:42902:1,2020-01-08T13:49:00Z,28.6246,-87.9964,11.2,21.8,11111222
Shell,ioos:station:wmo:42902:1,2020-01-08T13:59:00Z,28.6246,-87.9964,11.2,21.8,11111222
Shell,ioos:station:wmo:42902:1,2020-01-08T14:09:00Z,28.6246,-87.9964,11.2,21.8,11111222
Shell,ioos:station:wmo:42902:1,2020-01-08T14:19:00Z,28.6246,-87.9964,11.2,21.8,11111222
Shell,ioos:station:wmo:42902:1,2020-01-08T14:29:00Z,28.6246,-87.9964,11.2,21.8,11111222
Shell,ioos:station:wmo:42902:1,2020-01-08T14:39:00Z,28.6246,-87.9964,11.2,21.8,11111222
Shell,ioos:station:wmo:42902:1,2020-01-08T14:49:00Z,28.6246,-87.9964,11.2,21.8,11111222
Shell,ioos:station:wmo:42902:1,2020-01-08T14:59:00Z,28.6246,-87.9964,11.2,21.9,11111222
Shell,ioos:station:wmo:42902:1,2020-01-08T15:09:00Z,28.6246,-87.9964,11.2,21.9,11111222
Shell,ioos:station:wmo:42902:1,2020-01-08T15:19:00Z,28.6246,-87.9964,11.1,21.9,11111222
Shell,ioos:station:wmo:42902:1,2020-01-08T15:29:00Z,28.6246,-87.9964,11.2,21.9,11111222
Shell,ioos:station:wmo:42902:1,2020-01-08T15:39:00Z,28.6246,-87.9964,11.2,21.9,11111222
Shell,ioos:station:wmo:42902:1,2020-01-08T15:49:00Z,28.6246,-87.9964,11.1,21.9,11111222
Shell,ioos:station:wmo:42902:1,2020-01-08T15:59:00Z,28.6246,-87.9964,11.1,21.9,11111222
Shell,ioos:station:wmo:42902:1,2020-01-08T16:09:00Z,28.6246,-87.9964,11.1,21.9,11111222